This is the latest recevied weather packets stored in our database for station/object KG5CK-1. If no packets are shown the sender has not sent any weather packets the latest 1 day(s).
| Time | Temp. | Humidity | Pressure | Rain* | Wind** | Luminosity | Snow |
|---|---|---|---|---|---|---|---|
| 1778067723 | 12.22° C | 84% | 1008.3 hPa | 0 mm | 1.34 m/s, 17° | - | - |
| 1778067663 | 12.22° C | 84% | 1008.3 hPa | 0 mm | 1.34 m/s, 17° | - | - |
| 1778067603 | 12.22° C | 84% | 1007.9 hPa | 0 mm | 3.13 m/s, 6° | - | - |
| 1778067483 | 12.22° C | 84% | 1007.9 hPa | 0 mm | 3.13 m/s, 6° | - | - |
| 1778067363 | 12.22° C | 84% | 1007.9 hPa | 0 mm | 3.13 m/s, 6° | - | - |
| 1778067243 | 12.22° C | 84% | 1007.9 hPa | 0 mm | 1.34 m/s, 37° | - | - |
| 1778067063 | 12.22° C | 84% | 1007.9 hPa | 0 mm | 1.34 m/s, 37° | - | - |
| 1778066823 | 12.78° C | 83% | 1008.1 hPa | 0 mm | 3.13 m/s, 15° | - | - |
| 1778066643 | 12.78° C | 82% | 1007.8 hPa | 0 mm | 0.89 m/s, 35° | - | - |
| 1778066223 | 12.78° C | 82% | 1007.9 hPa | 0 mm | 1.79 m/s, 23° | - | - |
| 1778066043 | 12.78° C | 82% | 1007.8 hPa | 0 mm | 0.89 m/s, 29° | - | - |
| 1778065743 | 12.78° C | 81% | 1007.6 hPa | 0 mm | 0.89 m/s, 41° | - | - |
| 1778065323 | 12.78° C | 81% | 1007.6 hPa | 0 mm | 1.34 m/s, 11° | - | - |
| 1778065263 | 12.78° C | 81% | 1007.6 hPa | 0 mm | 1.34 m/s, 11° | - | - |
| 1778065143 | 12.78° C | 80% | 1007.5 hPa | 0 mm | 2.24 m/s, 4° | - | - |
| 1778065023 | 12.78° C | 80% | 1007.5 hPa | 0 mm | 2.24 m/s, 4° | - | - |
| 1778064963 | 12.78° C | 80% | 1007.5 hPa | 0 mm | 2.24 m/s, 4° | - | - |
| 1778064783 | 12.78° C | 80% | 1007.5 hPa | 0 mm | 1.79 m/s, 25° | - | - |
| 1778064663 | 12.78° C | 80% | 1007.5 hPa | 0 mm | 1.79 m/s, 25° | - | - |
| 1778064603 | 12.78° C | 80% | 1007.5 hPa | 0 mm | 2.24 m/s, 29° | - | - |
| 1778064543 | 12.78° C | 80% | 1007.5 hPa | 0 mm | 2.24 m/s, 29° | - | - |
| 1778064303 | 13.33° C | 80% | 1007.3 hPa | 0 mm | 0.89 m/s, 341° | - | - |
| 1778064123 | 13.33° C | 80% | 1007.3 hPa | 0 mm | 0.89 m/s, 341° | - | - |
| 1778063883 | 13.33° C | 79% | 1007.2 hPa | 0 mm | 1.79 m/s, 356° | - | - |
| 1778063583 | 13.33° C | 79% | 1007.1 hPa | 0 mm | 0.89 m/s, 24° | - | - |
* Rain latest hour (hover to see other rain measurements)
** Current wind speed in m/s (hover to see current wind gust speed)